| time (UTC) | temp F | wind direction | speed knots | gust knots | rain 1hr in | rain 24hr in | rain mn in | humidity % | barometer mb |
| 20260506160506 | 63 | 288 | 6.1 | 10.4 | 0.00 | 0.00 | 0.00 | 91 | 1011.8 |
| 20260506155500 | 62 | 283 | 5.2 | 7.8 | 0.00 | 0.00 | 0.00 | 90 | 1011.7 |
| 20260506154959 | 62 | 281 | 5.2 | 8.7 | 0.00 | 0.00 | 0.00 | 91 | 1011.7 |
| 20260506154457 | 63 | 278 | 5.2 | 7.8 | 0.00 | 0.00 | 0.00 | 91 | 1011.8 |
| 20260506153956 | 63 | 302 | 4.3 | 7.8 | 0.00 | 0.00 | 0.00 | 91 | 1011.8 |
| 20260506153454 | 63 | 286 | 4.3 | 7.0 | 0.00 | 0.00 | 0.00 | 91 | 1011.8 |
| 20260506152953 | 63 | 300 | 3.5 | 6.1 | 0.00 | 0.00 | 0.00 | 92 | 1011.8 |
| 20260506151947 | 63 | 305 | 4.3 | 7.0 | 0.00 | 0.00 | 0.00 | 93 | 1011.9 |
| 20260506151446 | 63 | 305 | 5.2 | 7.8 | 0.00 | 0.00 | 0.00 | 93 | 1012.0 |
| 20260506150945 | 63 | 303 | 5.2 | 7.0 | 0.00 | 0.00 | 0.00 | 93 | 1012.1 |
| 20260506145941 | 63 | 300 | 3.5 | 5.2 | 0.00 | 0.00 | 0.00 | 94 | 1012.2 |
| 20260506145439 | 63 | 313 | 3.5 | 6.1 | 0.00 | 0.00 | 0.00 | 94 | 1012.1 |
| 20260506144435 | 63 | 327 | 3.5 | 4.3 | 0.00 | 0.00 | 0.00 | 94 | 1012.2 |
| 20260506142926 | 63 | 322 | 3.5 | 6.1 | 0.00 | 0.00 | 0.00 | 95 | 1012.3 |
| 20260506141418 | 63 | 307 | 3.5 | 4.3 | 0.00 | 0.00 | 0.00 | 95 | 1012.5 |
| 20260506140917 | 63 | 324 | 2.6 | 3.5 | 0.00 | 0.00 | 0.00 | 94 | 1012.5 |
| 20260506140415 | 63 | 348 | 2.6 | 3.5 | 0.00 | 0.00 | 0.00 | 94 | 1012.6 |
| 20260506135411 | 63 | 353 | 2.6 | 4.3 | 0.00 | 0.00 | 0.00 | 93 | 1012.6 |
| 20260506134910 | 63 | 0 | 2.6 | 3.5 | 0.00 | 0.00 | 0.00 | 93 | 1012.7 |
| 20260506134408 | 63 | 8 | 2.6 | 3.5 | 0.00 | 0.00 | 0.00 | 92 | 1012.7 |
| 20260506133906 | 63 | 8 | 2.6 | 4.3 | 0.00 | 0.00 | 0.00 | 92 | 1012.7 |
| 20260506133405 | 63 | 6 | 1.7 | 4.3 | 0.00 | 0.00 | 0.00 | 93 | 1012.8 |
| 20260506132400 | 63 | 1 | 1.7 | 2.6 | 0.00 | 0.00 | 0.00 | 92 | 1013.0 |
| 20260506130348 | 64 | 39 | 2.6 | 3.5 | 0.00 | 0.00 | 0.00 | 92 | 1013.0 |
| 20260506125846 | 63 | 25 | 1.7 | 2.6 | 0.00 | 0.00 | 0.00 | 92 | 1013.2 |
| 20260506124840 | 63 | 74 | 0.9 | 1.7 | 0.00 | 0.00 | 0.00 | 92 | 1013.3 |
| 20260506124339 | 63 | 80 | 0.9 | 1.7 | 0.00 | 0.00 | 0.00 | 93 | 1013.3 |
| 20260506123836 | 63 | 55 | 1.7 | 2.6 | 0.00 | 0.00 | 0.00 | 93 | 1013.3 |
| 20260506123334 | 63 | 12 | 1.7 | 2.6 | 0.00 | 0.00 | 0.00 | 94 | 1013.4 |
| 20260506122833 | 62 | 353 | 2.6 | 3.5 | 0.00 | 0.00 | 0.00 | 93 | 1013.5 |
| 20260506122330 | 63 | 349 | 2.6 | 3.5 | 0.00 | 0.00 | 0.00 | 93 | 1013.6 |
| 20260506121829 | 63 | 353 | 1.7 | 3.5 | 0.00 | 0.00 | 0.00 | 93 | 1013.6 |
| 20260506120823 | 63 | 354 | 2.6 | 4.3 | 0.00 | 0.00 | 0.00 | 93 | 1013.7 |
| 20260506120321 | 63 | 5 | 3.5 | 5.2 | 0.00 | 0.00 | 0.00 | 93 | 1013.7 |
| 20260506115820 | 64 | 3 | 3.5 | 6.1 | 0.00 | 0.00 | 0.00 | 93 | 1013.8 |
| 20260506114815 | 64 | 352 | 3.5 | 4.3 | 0.00 | 0.00 | 0.00 | 93 | 1014.0 |
| 20260506114314 | 64 | 355 | 2.6 | 3.5 | 0.00 | 0.00 | 0.00 | 92 | 1014.0 |
| 20260506113813 | 64 | 353 | 2.6 | 4.3 | 0.00 | 0.00 | 0.00 | 92 | 1014.1 |
| 20260506113311 | 64 | 351 | 2.6 | 3.5 | 0.00 | 0.00 | 0.00 | 92 | 1014.1 |
| 20260506112306 | 64 | 359 | 2.6 | 3.5 | 0.00 | 0.00 | 0.00 | 91 | 1014.2 |
| 20260506111805 | 64 | 7 | 3.5 | 5.2 | 0.00 | 0.00 | 0.00 | 90 | 1014.2 |
| 20260506111303 | 65 | 10 | 3.5 | 5.2 | 0.00 | 0.00 | 0.00 | 90 | 1014.3 |
| 20260506110802 | 65 | 1 | 4.3 | 7.0 | 0.00 | 0.00 | 0.00 | 90 | 1014.3 |
| 20260506110300 | 65 | 16 | 4.3 | 6.1 | 0.00 | 0.00 | 0.00 | 90 | 1014.3 |
| 20260506105759 | 65 | 11 | 3.5 | 5.2 | 0.00 | 0.00 | 0.00 | 89 | 1014.4 |
| 20260506105258 | 65 | 2 | 3.5 | 5.2 | 0.00 | 0.00 | 0.00 | 89 | 1014.5 |
| 20260506104757 | 65 | 1 | 3.5 | 5.2 | 0.00 | 0.00 | 0.00 | 88 | 1014.4 |
| 20260506104256 | 66 | 5 | 4.3 | 6.1 | 0.00 | 0.00 | 0.00 | 88 | 1014.5 |
| 20260506102244 | 66 | 0 | 4.3 | 6.1 | 0.00 | 0.00 | 0.00 | 89 | 1014.7 |
| 20260506101742 | 66 | 359 | 3.5 | 6.1 | 0.00 | 0.00 | 0.00 | 89 | 1014.7 |
| 20260506101240 | 66 | 4 | 3.5 | 7.0 | 0.00 | 0.00 | 0.00 | 89 | 1014.6 |
| 20260506100738 | 66 | 4 | 3.5 | 6.1 | 0.00 | 0.00 | 0.00 | 89 | 1014.6 |
| 20260506100237 | 66 | 9 | 3.5 | 5.2 | 0.00 | 0.00 | 0.00 | 89 | 1014.6 |
| 20260506095231 | 66 | 9 | 3.5 | 4.3 | 0.00 | 0.00 | 0.00 | 88 | 1014.6 |
| 20260506094730 | 66 | 11 | 3.5 | 5.2 | 0.00 | 0.00 | 0.00 | 88 | 1014.5 |
| 20260506094229 | 66 | 9 | 3.5 | 6.1 | 0.00 | 0.00 | 0.00 | 87 | 1014.5 |
| 20260506093728 | 66 | 12 | 3.5 | 6.1 | 0.00 | 0.00 | 0.00 | 87 | 1014.5 |
| 20260506092721 | 67 | 14 | 3.5 | 5.2 | 0.00 | 0.00 | 0.00 | 85 | 1014.5 |
| 20260506092220 | 67 | 16 | 3.5 | 5.2 | 0.00 | 0.00 | 0.00 | 85 | 1014.5 |
| 20260506091718 | 67 | 9 | 3.5 | 6.1 | 0.00 | 0.00 | 0.00 | 84 | 1014.5 |
| 20260506091217 | 67 | 21 | 4.3 | 6.1 | 0.00 | 0.00 | 0.00 | 83 | 1014.6 |
| 20260506090714 | 67 | 43 | 4.3 | 7.0 | 0.00 | 0.00 | 0.00 | 83 | 1014.5 |
| 20260506090213 | 67 | 60 | 5.2 | 7.0 | 0.00 | 0.00 | 0.00 | 83 | 1014.5 |
| 20260506085712 | 67 | 63 | 5.2 | 7.0 | 0.00 | 0.00 | 0.00 | 82 | 1014.6 |
| 20260506085211 | 67 | 67 | 6.1 | 7.8 | 0.00 | 0.00 | 0.00 | 82 | 1014.6 |
| 20260506084710 | 67 | 67 | 7.0 | 7.8 | 0.00 | 0.00 | 0.00 | 82 | 1014.6 |
| 20260506084208 | 67 | 70 | 7.0 | 8.7 | 0.00 | 0.00 | 0.00 | 82 | 1014.5 |
| 20260506083707 | 67 | 72 | 6.1 | 7.0 | 0.00 | 0.00 | 0.00 | 82 | 1014.5 |
| 20260506082700 | 67 | 68 | 5.2 | 7.0 | 0.00 | 0.00 | 0.00 | 80 | 1014.6 |
| 20260506082159 | 67 | 73 | 5.2 | 7.0 | 0.00 | 0.00 | 0.00 | 80 | 1014.6 |
| 20260506081153 | 66 | 72 | 6.1 | 7.8 | 0.00 | 0.00 | 0.00 | 80 | 1014.5 |
| 20260506080651 | 67 | 74 | 7.0 | 7.8 | 0.00 | 0.00 | 0.00 | 80 | 1014.5 |
| 20260506080149 | 67 | 71 | 7.0 | 7.8 | 0.00 | 0.00 | 0.00 | 80 | 1014.4 |
| 20260506073134 | 66 | 94 | 5.2 | 7.8 | 0.00 | 0.00 | 0.00 | 77 | 1014.3 |
| 20260506072632 | 66 | 81 | 5.2 | 7.8 | 0.00 | 0.00 | 0.00 | 75 | 1014.3 |
| 20260506072131 | 66 | 104 | 4.3 | 6.1 | 0.00 | 0.00 | 0.00 | 74 | 1014.3 |
| 20260506071628 | 66 | 101 | 5.2 | 7.0 | 0.00 | 0.00 | 0.00 | 74 | 1014.3 |
| 20260506071126 | 67 | 101 | 5.2 | 7.0 | 0.00 | 0.00 | 0.00 | 73 | 1014.3 |
| 20260506070625 | 67 | 99 | 5.2 | 7.0 | 0.00 | 0.00 | 0.00 | 73 | 1014.3 |
| 20260506070124 | 67 | 94 | 6.1 | 7.8 | 0.00 | 0.00 | 0.00 | 71 | 1014.3 |
| 20260506062108 | 72 | 123 | 4.3 | 6.1 | 0.00 | 0.00 | 0.00 | 64 | 1014.2 |
| 20260506061606 | 72 | 119 | 5.2 | 7.0 | 0.00 | 0.00 | 0.00 | 63 | 1014.2 |
| 20260506061105 | 72 | 116 | 5.2 | 7.0 | 0.00 | 0.00 | 0.00 | 63 | 1014.2 |
| 20260506060604 | 72 | 122 | 3.5 | 6.1 | 0.00 | 0.00 | 0.00 | 63 | 1014.3 |
| 20260506051040 | 71 | 118 | 3.5 | 6.1 | 0.00 | 0.00 | 0.00 | 64 | 1014.4 |
| 20260506050538 | 71 | 138 | 4.3 | 8.7 | 0.00 | 0.00 | 0.00 | 63 | 1014.5 |
| 20260506045033 | 71 | 159 | 5.2 | 10.4 | 0.00 | 0.00 | 0.00 | 63 | 1014.6 |
| 20260506044531 | 72 | 157 | 7.0 | 9.6 | 0.00 | 0.00 | 0.00 | 63 | 1014.6 |
| 20260506044029 | 71 | 143 | 5.2 | 9.6 | 0.00 | 0.00 | 0.00 | 64 | 1014.7 |
| 20260506043025 | 72 | 156 | 5.2 | 9.6 | 0.00 | 0.00 | 0.00 | 62 | 1014.7 |
| 20260506042523 | 73 | 171 | 3.5 | 7.0 | 0.00 | 0.00 | 0.00 | 63 | 1014.7 |
| 20260506042022 | 73 | 146 | 2.6 | 7.0 | 0.00 | 0.00 | 0.00 | 61 | 1014.8 |
| 20260506041521 | 74 | 168 | 2.6 | 7.0 | 0.00 | 0.00 | 0.00 | 62 | 1014.8 |
| 20260506041020 | 74 | 230 | 1.7 | 3.5 | 0.00 | 0.00 | 0.00 | 63 | 1014.9 |
| 20260506040519 | 74 | 228 | 2.6 | 5.2 | 0.00 | 0.00 | 0.00 | 62 | 1015.0 |
| 20260506040017 | 74 | 188 | 1.7 | 3.5 | 0.00 | 0.00 | 0.00 | 60 | 1015.0 |
| 20260506035516 | 74 | 176 | 1.7 | 4.3 | 0.00 | 0.00 | 0.00 | 59 | 1015.1 |
| 20260506034510 | 74 | 323 | 3.5 | 6.1 | 0.00 | 0.00 | 0.00 | 59 | 1015.3 |
| 20260506034009 | 74 | 334 | 2.6 | 6.1 | 0.00 | 0.00 | 0.00 | 58 | 1015.3 |
| 20260506033507 | 72 | 316 | 3.5 | 5.2 | 0.00 | 0.00 | 0.00 | 60 | 1015.5 |
| 20260506032501 | 73 | 16 | 3.5 | 5.2 | 0.00 | 0.00 | 0.00 | 60 | 1015.5 |
| 20260506031958 | 75 | 45 | 2.6 | 4.3 | 0.00 | 0.00 | 0.00 | 56 | 1015.6 |
| 20260506031457 | 74 | 80 | 2.6 | 4.3 | 0.00 | 0.00 | 0.00 | 54 | 1015.6 |
| 20260506030956 | 73 | 240 | 2.6 | 4.3 | 0.00 | 0.00 | 0.00 | 58 | 1015.6 |
| 20260506025952 | 73 | 227 | 2.6 | 4.3 | 0.00 | 0.00 | 0.00 | 63 | 1015.7 |
| 20260506025449 | 73 | 241 | 2.6 | 3.5 | 0.00 | 0.00 | 0.00 | 60 | 1015.8 |
| 20260506024948 | 73 | 265 | 2.6 | 4.3 | 0.00 | 0.00 | 0.00 | 60 | 1015.9 |
| 20260506024446 | 73 | 313 | 2.6 | 4.3 | 0.00 | 0.00 | 0.00 | 62 | 1016.0 |
| 20260506023945 | 73 | 314 | 2.6 | 4.3 | 0.00 | 0.00 | 0.00 | 65 | 1016.0 |
| 20260506023441 | 72 | 290 | 2.6 | 5.2 | 0.00 | 0.00 | 0.00 | 63 | 1016.0 |
| 20260506022940 | 72 | 294 | 2.6 | 4.3 | 0.00 | 0.00 | 0.00 | 68 | 1016.1 |
| 20260506022437 | 72 | 301 | 1.7 | 3.5 | 0.00 | 0.00 | 0.00 | 64 | 1016.2 |
| 20260506021936 | 71 | 287 | 2.6 | 5.2 | 0.00 | 0.00 | 0.00 | 66 | 1016.2 |
| 20260506021435 | 71 | 281 | 2.6 | 5.2 | 0.00 | 0.00 | 0.00 | 66 | 1016.3 |
| 20260506020431 | 71 | 278 | 2.6 | 6.1 | 0.00 | 0.00 | 0.00 | 68 | 1016.5 |
| 20260506015930 | 70 | 263 | 3.5 | 7.0 | 0.00 | 0.00 | 0.00 | 68 | 1016.6 |
| 20260506015426 | 70 | 282 | 2.6 | 6.1 | 0.00 | 0.00 | 0.00 | 66 | 1016.7 |
| 20260506014925 | 70 | 266 | 4.3 | 7.0 | 0.00 | 0.00 | 0.00 | 67 | 1016.8 |
| 20260506013416 | 69 | 278 | 2.6 | 5.2 | 0.00 | 0.00 | 0.00 | 67 | 1017.2 |
| 20260506012411 | 70 | 321 | 3.5 | 7.0 | 0.00 | 0.00 | 0.00 | 65 | 1017.3 |
| 20260506011909 | 70 | 322 | 2.6 | 6.1 | 0.00 | 0.00 | 0.00 | 67 | 1017.5 |
| 20260506011408 | 69 | 321 | 2.6 | 6.1 | 0.00 | 0.00 | 0.00 | 68 | 1017.5 |
| 20260506010907 | 69 | 318 | 2.6 | 5.2 | 0.00 | 0.00 | 0.00 | 65 | 1017.6 |
| 20260506010405 | 69 | 315 | 2.6 | 7.0 | 0.00 | 0.00 | 0.00 | 68 | 1017.6 |
| 20260506005904 | 68 | 333 | 2.6 | 5.2 | 0.00 | 0.00 | 0.00 | 71 | 1017.7 |
| 20260506004858 | 67 | 296 | 2.6 | 6.1 | 0.00 | 0.00 | 0.00 | 72 | 1017.7 |
| 20260506004356 | 66 | 279 | 3.5 | 7.0 | 0.00 | 0.00 | 0.00 | 71 | 1017.8 |
| 20260506003350 | 65 | 279 | 3.5 | 6.1 | 0.00 | 0.00 | 0.00 | 71 | 1017.8 |
| 20260506002849 | 65 | 283 | 3.5 | 7.8 | 0.00 | 0.00 | 0.00 | 71 | 1017.9 |
| 20260506001340 | 64 | 275 | 5.2 | 9.6 | 0.00 | 0.00 | 0.00 | 72 | 1018.0 |
| 20260506000336 | 64 | 271 | 6.1 | 9.6 | 0.00 | 0.00 | 0.00 | 71 | 1018.1 |
| 20260505235835 | 63 | 277 | 6.1 | 9.6 | 0.00 | 0.00 | 0.00 | 72 | 1018.1 |
| 20260505235334 | 63 | 275 | 6.1 | 9.6 | 0.00 | 0.00 | 0.00 | 71 | 1018.2 |
| 20260505234832 | 63 | 273 | 6.1 | 11.3 | 0.00 | 0.00 | 0.00 | 70 | 1018.2 |
| 20260505234329 | 62 | 273 | 6.1 | 10.4 | 0.00 | 0.00 | 0.00 | 72 | 1018.3 |
| 20260505233827 | 62 | 271 | 7.0 | 11.3 | 0.00 | 0.00 | 0.00 | 71 | 1018.2 |
| 20260505233325 | 62 | 270 | 6.1 | 13.0 | 0.00 | 0.00 | 0.00 | 72 | 1018.3 |
| 20260505232318 | 62 | 276 | 6.1 | 12.2 | 0.00 | 0.00 | 0.00 | 76 | 1018.2 |
| 20260505231818 | 62 | 274 | 6.1 | 12.2 | 0.00 | 0.00 | 0.00 | 74 | 1018.2 |
| 20260505231315 | 62 | 275 | 7.0 | 12.2 | 0.00 | 0.00 | 0.00 | 75 | 1018.2 |
| 20260505230814 | 62 | 279 | 6.1 | 11.3 | 0.00 | 0.00 | 0.00 | 74 | 1018.1 |
| 20260505230312 | 62 | 267 | 7.8 | 13.0 | 0.00 | 0.00 | 0.00 | 73 | 1018.1 |
| 20260505225811 | 62 | 258 | 8.7 | 12.2 | 0.00 | 0.00 | 0.00 | 72 | 1018.2 |
| 20260505224806 | 62 | 270 | 7.8 | 12.2 | 0.00 | 0.00 | 0.00 | 72 | 1018.2 |
| 20260505224304 | 62 | 265 | 7.0 | 13.0 | 0.00 | 0.00 | 0.00 | 71 | 1018.2 |
| 20260505223803 | 62 | 262 | 7.8 | 13.9 | 0.00 | 0.00 | 0.00 | 72 | 1018.3 |
| 20260505222253 | 61 | 252 | 9.6 | 13.9 | 0.00 | 0.00 | 0.00 | 73 | 1018.3 |
| 20260505221751 | 61 | 260 | 7.0 | 12.2 | 0.00 | 0.00 | 0.00 | 77 | 1018.3 |
| 20260505221250 | 61 | 278 | 6.1 | 9.6 | 0.00 | 0.00 | 0.00 | 78 | 1018.2 |
| 20260505220244 | 61 | 311 | 5.2 | 10.4 | 0.00 | 0.00 | 0.00 | 78 | 1018.2 |
| 20260505215742 | 61 | 315 | 5.2 | 8.7 | 0.00 | 0.00 | 0.00 | 78 | 1018.2 |
| 20260505215241 | 60 | 316 | 5.2 | 10.4 | 0.00 | 0.00 | 0.00 | 79 | 1018.2 |
| 20260505214739 | 60 | 322 | 6.1 | 9.6 | 0.00 | 0.00 | 0.00 | 81 | 1018.3 |
| 20260505213735 | 60 | 320 | 5.2 | 9.6 | 0.00 | 0.00 | 0.00 | 80 | 1018.2 |
| 20260505213234 | 59 | 317 | 6.1 | 10.4 | 0.00 | 0.00 | 0.00 | 81 | 1018.2 |
| 20260505212731 | 59 | 323 | 6.1 | 10.4 | 0.00 | 0.00 | 0.00 | 81 | 1018.2 |
| 20260505212230 | 60 | 316 | 4.3 | 9.6 | 0.00 | 0.00 | 0.00 | 83 | 1018.3 |
| 20260505211727 | 59 | 275 | 6.1 | 9.6 | 0.00 | 0.00 | 0.00 | 80 | 1018.2 |
| 20260505210723 | 59 | 259 | 7.8 | 11.3 | 0.00 | 0.00 | 0.00 | 84 | 1018.2 |
| 20260505210222 | 58 | 251 | 7.0 | 11.3 | 0.00 | 0.00 | 0.00 | 84 | 1018.2 |
| 20260505205719 | 58 | 254 | 7.8 | 13.0 | 0.00 | 0.00 | 0.00 | 84 | 1018.1 |
| 20260505204714 | 58 | 258 | 9.6 | 13.9 | 0.00 | 0.00 | 0.00 | 84 | 1018.0 |
| 20260505204212 | 58 | 258 | 9.6 | 14.8 | 0.00 | 0.00 | 0.00 | 83 | 1017.9 |
| 20260505203711 | 58 | 257 | 9.6 | 13.9 | 0.00 | 0.00 | 0.00 | 82 | 1017.9 |
| 20260505203209 | 58 | 260 | 8.7 | 13.0 | 0.00 | 0.00 | 0.00 | 82 | 1017.8 |
| 20260505202205 | 58 | 260 | 7.8 | 12.2 | 0.00 | 0.00 | 0.00 | 83 | 1017.8 |
| 20260505201201 | 58 | 264 | 8.7 | 13.9 | 0.00 | 0.00 | 0.00 | 80 | 1017.7 |
| 20260505200156 | 58 | 265 | 7.8 | 13.0 | 0.00 | 0.00 | 0.00 | 80 | 1017.7 |
| 20260505195655 | 58 | 266 | 7.8 | 13.0 | 0.00 | 0.00 | 0.00 | 81 | 1017.7 |
| 20260505195153 | 59 | 263 | 7.8 | 13.0 | 0.00 | 0.00 | 0.00 | 82 | 1017.7 |
| 20260505194651 | 59 | 268 | 7.0 | 12.2 | 0.00 | 0.00 | 0.00 | 82 | 1017.7 |
| 20260505194150 | 59 | 265 | 7.8 | 13.9 | 0.00 | 0.00 | 0.00 | 81 | 1017.7 |
| 20260505193145 | 59 | 264 | 7.8 | 12.2 | 0.00 | 0.00 | 0.00 | 82 | 1017.7 |
| 20260505192141 | 59 | 258 | 8.7 | 13.0 | 0.00 | 0.00 | 0.00 | 81 | 1017.7 |
| 20260505191137 | 58 | 257 | 8.7 | 13.9 | 0.00 | 0.00 | 0.00 | 81 | 1017.7 |
| 20260505190634 | 58 | 255 | 9.6 | 13.9 | 0.00 | 0.00 | 0.00 | 81 | 1017.6 |
| 20260505190133 | 58 | 255 | 8.7 | 13.0 | 0.00 | 0.01 | 0.00 | 82 | 1017.5 |
| 20260505185632 | 58 | 250 | 7.8 | 11.3 | 0.00 | 0.01 | 0.00 | 83 | 1017.6 |
| 20260505185130 | 58 | 253 | 7.8 | 12.2 | 0.00 | 0.01 | 0.00 | 82 | 1017.6 |
| 20260505184629 | 58 | 255 | 7.0 | 11.3 | 0.00 | 0.01 | 0.00 | 83 | 1017.6 |
| 20260505184128 | 58 | 253 | 7.8 | 10.4 | 0.00 | 0.01 | 0.00 | 84 | 1017.5 |
| 20260505183124 | 59 | 259 | 7.8 | 10.4 | 0.00 | 0.01 | 0.00 | 84 | 1017.5 |
| 20260505182622 | 59 | 256 | 7.8 | 11.3 | 0.00 | 0.01 | 0.00 | 85 | 1017.5 |
| 20260505182121 | 59 | 264 | 4.3 | 8.7 | 0.00 | 0.01 | 0.00 | 86 | 1017.5 |
| 20260505181619 | 59 | 295 | 3.5 | 6.1 | 0.00 | 0.01 | 0.00 | 85 | 1017.4 |
| 20260505181117 | 59 | 303 | 3.5 | 7.8 | 0.00 | 0.01 | 0.00 | 86 | 1017.4 |
| 20260505180615 | 59 | 274 | 5.2 | 9.6 | 0.00 | 0.01 | 0.00 | 85 | 1017.4 |
| 20260505175611 | 59 | 255 | 7.8 | 10.4 | 0.00 | 0.01 | 0.00 | 83 | 1017.3 |
| 20260505175108 | 59 | 252 | 7.8 | 11.3 | 0.00 | 0.01 | 0.00 | 83 | 1017.3 |
| 20260505174104 | 59 | 255 | 8.7 | 12.2 | 0.00 | 0.01 | 0.00 | 83 | 1017.2 |
| 20260505172053 | 59 | 251 | 6.1 | 9.6 | 0.00 | 0.01 | 0.00 | 85 | 1017.4 |
| 20260505171048 | 59 | 311 | 3.5 | 6.1 | 0.00 | 0.01 | 0.00 | 85 | 1017.4 |
| 20260505170546 | 60 | 306 | 3.5 | 6.1 | 0.00 | 0.01 | 0.00 | 85 | 1017.5 |
| 20260505170044 | 60 | 288 | 4.3 | 7.0 | 0.00 | 0.02 | 0.00 | 86 | 1017.6 |
| 20260505165542 | 60 | 266 | 6.1 | 8.7 | 0.00 | 0.02 | 0.00 | 84 | 1017.6 |
| 20260505165041 | 60 | 263 | 7.0 | 9.6 | 0.00 | 0.02 | 0.00 | 84 | 1017.6 |
| 20260505164538 | 60 | 258 | 7.8 | 10.4 | 0.00 | 0.02 | 0.00 | 82 | 1017.6 |
| 20260505164036 | 60 | 252 | 7.8 | 11.3 | 0.00 | 0.03 | 0.00 | 81 | 1017.7 |
| 20260505163535 | 60 | 246 | 7.8 | 11.3 | 0.00 | 0.05 | 0.00 | 81 | 1017.7 |
| 20260505163034 | 60 | 247 | 7.8 | 12.2 | 0.00 | 0.06 | 0.00 | 80 | 1017.6 |
| 20260505162533 | 60 | 250 | 8.7 | 13.0 | 0.00 | 0.10 | 0.00 | 80 | 1017.6 |
| 20260505161527 | 60 | 247 | 7.8 | 11.3 | 0.00 | 0.14 | 0.00 | 82 | 1017.7 |